EW2975 Weather Reports


Display with metric or nautical units.
time (UTC)temp
F
wind
direction
speed
MPH
gust
MPH
rain 1hr
in
rain 24hr
in
rain mn
in
humidity
%
barometer
mb
20260504151105 72 177 12.0 21.0 0.00 0.00 0.00 67 1013.5
20260504151006 72 176 13.0 21.0 0.00 0.00 0.00 68 1013.4
20260504150805 71 173 14.0 22.0 0.00 0.00 0.00 68 1013.4
20260504150704 71 173 14.0 22.0 0.00 0.00 0.00 67 1013.3
20260504150605 71 173 14.0 22.0 0.00 0.00 0.00 67 1013.3
20260504150504 71 173 14.0 22.0 0.00 0.00 0.00 67 1013.3
20260504150405 71 176 13.0 22.0 0.00 0.00 0.00 68 1013.3
20260504150304 71 177 13.0 22.0 0.00 0.00 0.00 68 1013.3
20260504150205 71 182 13.0 22.0 0.00 0.00 0.00 68 1013.3
20260504150105 70 179 13.0 23.0 0.00 0.00 0.00 67 1013.3
20260504141304 67 187 12.0 18.0 0.00 0.00 0.00 72 1013.5
20260504141204 67 186 12.0 18.0 0.00 0.00 0.00 72 1013.5
20260504141105 67 185 12.0 18.0 0.00 0.00 0.00 72 1013.5
20260504141005 67 185 12.0 18.0 0.00 0.00 0.00 73 1013.5
20260504140904 67 186 12.0 18.0 0.00 0.00 0.00 73 1013.4
20260504140805 67 185 11.0 18.0 0.00 0.00 0.00 73 1013.5
20260504140705 67 184 11.0 18.0 0.00 0.00 0.00 73 1013.4
20260504140505 67 181 11.0 18.0 0.00 0.00 0.00 73 1013.4
20260504140404 67 182 11.0 18.0 0.00 0.00 0.00 73 1013.4
20260504140305 66 183 10.0 18.0 0.00 0.00 0.00 73 1013.3
20260504130804 61 153 4.0 9.0 0.00 0.00 0.00 82 1013.6
20260504130705 61 154 5.0 9.0 0.00 0.00 0.00 81 1013.6
20260504130505 61 153 5.0 9.0 0.00 0.00 0.00 82 1013.6
20260504130404 61 155 5.0 9.0 0.00 0.00 0.00 82 1013.6
20260504130304 61 155 5.0 9.0 0.00 0.00 0.00 82 1013.6
20260504130104 61 156 4.0 8.0 0.00 0.00 0.00 82 1013.5
20260504120304 56 160 3.0 6.0 0.00 0.00 0.00 87 1013.0
20260504120204 56 160 3.0 6.0 0.00 0.00 0.00 87 1013.1
20260504120104 56 160 3.0 6.0 0.00 0.00 0.00 87 1013.0
20260504110704 56 154 0.0 2.0 0.00 0.00 0.00 85 1013.2
20260504110604 56 154 0.0 2.0 0.00 0.00 0.00 85 1013.2
20260504110504 56 154 0.0 1.0 0.00 0.00 0.00 85 1013.2
20260504110404 57 154 0.0 1.0 0.00 0.00 0.00 85 1013.2
20260504110304 57 0 0.0 0.0 0.00 0.00 0.00 85 1013.2
20260504110204 57 154 0.0 1.0 0.00 0.00 0.00 85 1013.1
20260504110104 57 154 0.0 3.0 0.00 0.00 0.00 85 1013.1
20260504100604 58 169 1.0 3.0 0.00 0.00 0.00 82 1013.6
20260504100504 58 166 1.0 3.0 0.00 0.00 0.00 82 1013.6
20260504100405 58 164 1.0 3.0 0.00 0.00 0.00 82 1013.6
20260504100204 58 160 2.0 6.0 0.00 0.00 0.00 82 1013.6
20260504100103 58 158 2.0 6.0 0.00 0.00 0.00 82 1013.6
20260504090104 60 157 2.0 4.0 0.00 0.00 0.00 79 1013.7
20260504081904 60 155 4.0 7.0 0.00 0.00 0.00 77 1013.7
20260504081804 60 154 4.0 7.0 0.00 0.00 0.00 77 1013.7
20260504081704 60 152 3.0 7.0 0.00 0.00 0.00 77 1013.7
20260504081405 60 151 3.0 8.0 0.00 0.00 0.00 76 1013.6
20260504081304 60 150 3.0 8.0 0.00 0.00 0.00 76 1013.6
20260504081204 60 150 3.0 8.0 0.00 0.00 0.00 76 1013.7
20260504081104 60 151 3.0 8.0 0.00 0.00 0.00 76 1013.7
20260504081004 60 151 3.0 8.0 0.00 0.00 0.00 76 1013.7
20260504080704 60 149 3.0 8.0 0.00 0.00 0.00 76 1013.7
20260504080604 60 148 3.0 8.0 0.00 0.00 0.00 76 1013.6
20260504080504 60 148 3.0 8.0 0.00 0.00 0.00 76 1013.6
20260504080405 60 148 3.0 7.0 0.00 0.00 0.00 76 1013.7
20260504080304 60 148 3.0 7.0 0.00 0.00 0.00 76 1013.7
20260504080204 60 148 3.0 7.0 0.00 0.00 0.00 76 1013.7
20260504070405 62 160 3.0 7.0 0.00 0.00 0.00 72 1014.7
20260504070303 62 161 4.0 7.0 0.00 0.00 0.00 72 1014.7
20260504070204 62 163 4.0 8.0 0.00 0.00 0.00 72 1014.7
20260504070105 62 163 4.0 8.0 0.00 0.00 0.00 72 1014.8
20260504060104 63 169 6.0 10.0 0.00 0.00 0.00 68 1015.6
20260504050604 64 160 5.0 10.0 0.00 0.00 0.00 64 1015.6
20260504050504 64 161 5.0 10.0 0.00 0.00 0.00 64 1015.6
20260504050403 64 162 6.0 10.0 0.00 0.00 0.00 64 1015.6
20260504050304 64 161 5.0 10.0 0.00 0.00 0.00 64 1015.6
20260504050204 64 159 6.0 10.0 0.00 0.00 0.00 64 1015.6
20260504050103 64 158 6.0 10.0 0.00 0.00 0.00 64 1015.6
20260504050005 64 157 6.0 10.0 0.00 0.00 0.00 64 1015.6
20260504045903 64 158 6.0 10.0 0.00 0.00 0.00 64 1015.7
20260504045804 64 157 6.0 10.0 0.00 0.00 0.00 64 1015.6
20260504045704 64 158 6.0 10.0 0.00 0.00 0.00 64 1015.7
20260504045604 63 157 5.0 10.0 0.00 0.00 0.00 63 1015.6
20260504045503 63 156 5.0 10.0 0.00 0.00 0.00 63 1015.6
20260504045404 63 155 5.0 10.0 0.00 0.00 0.00 64 1015.6
20260504045204 63 157 4.0 10.0 0.00 0.00 0.00 63 1015.7
20260504045104 63 157 4.0 10.0 0.00 0.00 0.00 63 1015.7
20260504044903 63 156 4.0 8.0 0.00 0.00 0.00 64 1015.8
20260504044804 63 156 4.0 8.0 0.00 0.00 0.00 64 1015.8
20260504044704 63 156 4.0 8.0 0.00 0.00 0.00 64 1015.8
20260504044604 63 156 4.0 8.0 0.00 0.00 0.00 64 1015.8
20260504044504 63 158 4.0 8.0 0.00 0.00 0.00 64 1015.7
20260504044204 63 157 4.0 8.0 0.00 0.00 0.00 63 1015.7
20260504044004 63 157 4.0 8.0 0.00 0.00 0.00 63 1015.8
20260504043703 63 161 4.0 8.0 0.00 0.00 0.00 64 1015.7
20260504043604 63 162 4.0 8.0 0.00 0.00 0.00 63 1015.8
20260504043404 63 162 4.0 8.0 0.00 0.00 0.00 63 1015.8
20260504043303 63 164 4.0 8.0 0.00 0.00 0.00 64 1015.9
20260504043205 63 165 4.0 8.0 0.00 0.00 0.00 64 1015.9
20260504043103 63 166 4.0 8.0 0.00 0.00 0.00 64 1015.9
20260504043004 63 166 3.0 8.0 0.00 0.00 0.00 64 1015.9
20260504042903 63 166 3.0 7.0 0.00 0.00 0.00 64 1015.9
20260504042804 63 164 3.0 7.0 0.00 0.00 0.00 64 1015.9
20260504042704 63 164 3.0 7.0 0.00 0.00 0.00 64 1015.9
20260504042604 63 163 3.0 7.0 0.00 0.00 0.00 64 1015.9
20260504042504 63 163 3.0 6.0 0.00 0.00 0.00 64 1015.9
20260504042404 63 163 3.0 6.0 0.00 0.00 0.00 64 1015.9
20260504042304 63 163 3.0 6.0 0.00 0.00 0.00 64 1015.9
20260504042203 63 163 3.0 6.0 0.00 0.00 0.00 64 1015.9
20260504042104 63 163 3.0 6.0 0.00 0.00 0.00 64 1015.9
20260504041904 63 163 3.0 6.0 0.00 0.00 0.00 64 1016.0
20260504041804 63 166 3.0 6.0 0.00 0.00 0.00 64 1016.0
20260504041704 63 167 3.0 6.0 0.00 0.00 0.00 64 1016.0
20260504041603 63 167 3.0 6.0 0.00 0.00 0.00 64 1016.0
20260504041404 63 167 3.0 6.0 0.00 0.00 0.00 64 1016.1
20260504041303 63 166 2.0 6.0 0.00 0.00 0.00 64 1016.1
20260504041204 63 166 3.0 6.0 0.00 0.00 0.00 64 1016.2
20260504041103 63 167 2.0 6.0 0.00 0.00 0.00 64 1016.1
20260504041004 63 168 3.0 6.0 0.00 0.00 0.00 64 1016.1
20260504040904 63 168 3.0 6.0 0.00 0.00 0.00 64 1016.1
20260504040805 63 167 3.0 5.0 0.00 0.00 0.00 64 1016.1
20260504040703 63 167 3.0 5.0 0.00 0.00 0.00 64 1016.1
20260504040504 63 169 3.0 6.0 0.00 0.00 0.00 64 1016.1
20260504040404 63 171 3.0 6.0 0.00 0.00 0.00 64 1016.1
20260504040304 63 172 3.0 6.0 0.00 0.00 0.00 64 1016.1
20260504040204 63 173 3.0 6.0 0.00 0.00 0.00 64 1016.0
20260504040004 63 174 3.0 6.0 0.00 0.00 0.00 64 1016.1
20260504035904 63 174 3.0 6.0 0.00 0.00 0.00 64 1016.1
20260504035803 63 175 3.0 6.0 0.00 0.00 0.00 64 1016.1
20260504035704 63 176 3.0 6.0 0.00 0.00 0.00 64 1016.1
20260504035604 63 176 2.0 6.0 0.00 0.00 0.00 64 1016.1
20260504035503 63 177 2.0 4.0 0.00 0.00 0.00 64 1016.1
20260504035404 63 177 2.0 4.0 0.00 0.00 0.00 64 1016.1
20260504035304 63 176 2.0 4.0 0.00 0.00 0.00 64 1016.0
20260504035204 63 176 2.0 4.0 0.00 0.00 0.00 64 1016.1
20260504035103 63 176 2.0 4.0 0.00 0.00 0.00 63 1016.1
20260504035004 63 176 3.0 4.0 0.00 0.00 0.00 63 1016.1
20260504034903 64 176 3.0 4.0 0.00 0.00 0.00 63 1016.1
20260504034705 64 176 3.0 4.0 0.00 0.00 0.00 63 1016.1
20260504034604 64 176 3.0 4.0 0.00 0.00 0.00 63 1016.1
20260504034504 64 175 3.0 4.0 0.00 0.00 0.00 63 1016.0
20260504034404 64 175 3.0 6.0 0.00 0.00 0.00 63 1016.0
20260504034304 64 175 3.0 6.0 0.00 0.00 0.00 63 1016.0
20260504034203 64 173 3.0 6.0 0.00 0.00 0.00 63 1016.0
20260504034104 64 172 3.0 6.0 0.00 0.00 0.00 63 1016.1
20260504033903 64 169 3.0 6.0 0.00 0.00 0.00 62 1016.0
20260504033804 64 168 3.0 6.0 0.00 0.00 0.00 62 1016.1
20260504033704 64 168 3.0 6.0 0.00 0.00 0.00 62 1016.0
20260504033604 64 166 3.0 6.0 0.00 0.00 0.00 62 1016.1
20260504033503 64 167 3.0 6.0 0.00 0.00 0.00 62 1016.0
20260504033404 64 168 3.0 6.0 0.00 0.00 0.00 62 1016.1
20260504033204 64 168 3.0 6.0 0.00 0.00 0.00 62 1016.1
20260504033104 64 169 3.0 6.0 0.00 0.00 0.00 62 1016.1
20260504033004 64 170 3.0 6.0 0.00 0.00 0.00 62 1016.2
20260504032903 64 171 3.0 6.0 0.00 0.00 0.00 62 1016.1
20260504032804 64 171 3.0 6.0 0.00 0.00 0.00 62 1016.1
20260504032706 64 172 3.0 6.0 0.00 0.00 0.00 62 1016.1
20260504032603 64 172 3.0 6.0 0.00 0.00 0.00 62 1016.1
20260504032503 64 174 3.0 6.0 0.00 0.00 0.00 62 1016.1
20260504032404 64 174 3.0 6.0 0.00 0.00 0.00 62 1016.0
20260504032304 64 175 3.0 6.0 0.00 0.00 0.00 62 1016.0
20260504032204 64 176 2.0 6.0 0.00 0.00 0.00 62 1016.0
20260504032103 64 178 2.0 6.0 0.00 0.00 0.00 62 1016.0
20260504032005 64 179 2.0 5.0 0.00 0.00 0.00 62 1016.1
20260504031904 64 183 2.0 5.0 0.00 0.00 0.00 62 1016.1
20260504031805 64 183 2.0 5.0 0.00 0.00 0.00 62 1016.1
20260504031703 64 183 2.0 5.0 0.00 0.00 0.00 62 1016.1
20260504031504 64 183 2.0 4.0 0.00 0.00 0.00 62 1016.1
20260504031304 64 184 3.0 7.0 0.00 0.00 0.00 62 1016.0
20260504031204 64 185 3.0 7.0 0.00 0.00 0.00 62 1016.0
20260504031104 64 186 3.0 7.0 0.00 0.00 0.00 61 1016.0
20260504031004 64 186 3.0 7.0 0.00 0.00 0.00 61 1016.0
20260504030904 64 186 2.0 7.0 0.00 0.00 0.00 61 1016.0
20260504030803 64 187 2.0 7.0 0.00 0.00 0.00 61 1016.0
20260504030704 64 188 2.0 7.0 0.00 0.00 0.00 61 1016.0
20260504030604 65 188 2.0 7.0 0.00 0.00 0.00 61 1016.0
20260504030503 64 189 2.0 7.0 0.00 0.00 0.00 61 1016.1
20260504030404 64 189 2.0 4.0 0.00 0.00 0.00 61 1016.0
20260504030303 64 188 2.0 4.0 0.00 0.00 0.00 61 1016.1
20260504030204 64 186 2.0 4.0 0.00 0.00 0.00 61 1016.1
20260504030004 64 179 2.0 4.0 0.00 0.00 0.00 61 1016.1
20260504025903 65 176 2.0 4.0 0.00 0.00 0.00 61 1016.1
20260504025804 65 174 3.0 4.0 0.00 0.00 0.00 61 1016.1
20260504025706 65 174 3.0 5.0 0.00 0.00 0.00 61 1016.0
20260504025603 65 173 3.0 5.0 0.00 0.00 0.00 61 1016.1
20260504025504 65 171 3.0 5.0 0.00 0.00 0.00 60 1016.0
20260504025304 65 171 3.0 5.0 0.00 0.00 0.00 60 1016.1
20260504025204 65 170 3.0 5.0 0.00 0.00 0.00 60 1016.1
20260504025104 65 171 3.0 5.0 0.00 0.00 0.00 60 1016.1
20260504025003 65 171 2.0 5.0 0.00 0.00 0.00 60 1016.1
20260504024904 65 172 2.0 5.0 0.00 0.00 0.00 60 1016.1
20260504024803 65 172 2.0 5.0 0.00 0.00 0.00 60 1016.1
20260504024704 65 173 2.0 4.0 0.00 0.00 0.00 60 1016.1
20260504024603 65 171 2.0 4.0 0.00 0.00 0.00 60 1016.1
20260504024505 65 172 2.0 3.0 0.00 0.00 0.00 60 1016.1
20260504024404 65 170 2.0 4.0 0.00 0.00 0.00 60 1016.1
20260504024303 65 168 2.0 4.0 0.00 0.00 0.00 59 1016.1
20260504024104 66 165 2.0 4.0 0.00 0.00 0.00 59 1016.1
20260504023804 66 163 2.0 4.0 0.00 0.00 0.00 59 1016.0
20260504023603 66 162 2.0 4.0 0.00 0.00 0.00 58 1016.0
20260504023504 66 161 2.0 4.0 0.00 0.00 0.00 58 1015.9
20260504023403 66 162 2.0 4.0 0.00 0.00 0.00 58 1016.0
20260504023303 66 164 2.0 4.0 0.00 0.00 0.00 58 1015.9
20260504023204 66 166 2.0 6.0 0.00 0.00 0.00 58 1015.9
20260504023105 66 167 3.0 6.0 0.00 0.00 0.00 58 1015.9
20260504022903 66 168 3.0 6.0 0.00 0.00 0.00 57 1016.0
20260504022804 66 168 3.0 6.0 0.00 0.00 0.00 57 1016.0
20260504022703 66 169 3.0 6.0 0.00 0.00 0.00 57 1016.0
20260504022604 66 168 3.0 6.0 0.00 0.00 0.00 57 1016.0
20260504022503 66 169 3.0 6.0 0.00 0.00 0.00 57 1015.9
20260504022404 66 169 3.0 6.0 0.00 0.00 0.00 57 1015.9
20260504022304 66 168 3.0 6.0 0.00 0.00 0.00 57 1015.9
20260504022203 66 168 3.0 7.0 0.00 0.00 0.00 57 1016.0
20260504022104 67 167 3.0 7.0 0.00 0.00 0.00 57 1015.9
20260504022006 67 166 3.0 7.0 0.00 0.00 0.00 57 1016.0
20260504021905 67 165 3.0 7.0 0.00 0.00 0.00 57 1015.9
20260504021806 67 165 3.0 7.0 0.00 0.00 0.00 56 1016.0
20260504021705 67 164 3.0 7.0 0.00 0.00 0.00 56 1015.9
20260504021605 67 165 3.0 7.0 0.00 0.00 0.00 56 1015.9
20260504021505 67 165 2.0 7.0 0.00 0.00 0.00 56 1015.9
20260504021405 67 164 2.0 7.0 0.00 0.00 0.00 56 1015.9
20260504021306 67 164 2.0 7.0 0.00 0.00 0.00 56 1015.8
20260504021205 67 164 2.0 4.0 0.00 0.00 0.00 56 1015.8
20260504021105 67 164 2.0 4.0 0.00 0.00 0.00 56 1015.8
20260504021005 67 165 2.0 4.0 0.00 0.00 0.00 56 1015.8
20260504020805 67 165 2.0 4.0 0.00 0.00 0.00 56 1015.8
20260504020705 67 164 2.0 4.0 0.00 0.00 0.00 56 1015.8
20260504020605 67 163 2.0 4.0 0.00 0.00 0.00 56 1015.7
20260504020506 67 163 2.0 4.0 0.00 0.00 0.00 56 1015.7
20260504020405 67 163 2.0 4.0 0.00 0.00 0.00 56 1015.7
20260504020305 67 163 3.0 4.0 0.00 0.00 0.00 56 1015.7
20260504020205 67 162 2.0 4.0 0.00 0.00 0.00 56 1015.7
20260504020106 67 162 2.0 4.0 0.00 0.00 0.00 56 1015.7
20260504020006 67 163 2.0 4.0 0.00 0.00 0.00 55 1015.7
20260504015905 67 162 2.0 4.0 0.00 0.00 0.00 55 1015.7
20260504015806 67 163 2.0 4.0 0.00 0.00 0.00 55 1015.7
20260504015705 67 163 2.0 4.0 0.00 0.00 0.00 56 1015.7
20260504015605 67 164 2.0 4.0 0.00 0.00 0.00 56 1015.7
20260504015505 67 164 2.0 4.0 0.00 0.00 0.00 55 1015.7
20260504015406 67 164 2.0 4.0 0.00 0.00 0.00 55 1015.6
20260504015305 67 165 3.0 4.0 0.00 0.00 0.00 55 1015.6
20260504015206 68 166 3.0 6.0 0.00 0.00 0.00 55 1015.6
20260504015006 68 166 3.0 6.0 0.00 0.00 0.00 55 1015.5
20260504014905 68 167 3.0 6.0 0.00 0.00 0.00 55 1015.5
20260504014805 68 168 3.0 6.0 0.00 0.00 0.00 55 1015.5
20260504014706 68 169 3.0 6.0 0.00 0.00 0.00 55 1015.6
20260504014606 68 167 2.0 6.0 0.00 0.00 0.00 55 1015.6
20260504014505 68 166 2.0 6.0 0.00 0.00 0.00 55 1015.6
20260504014406 68 166 2.0 6.0 0.00 0.00 0.00 54 1015.6
20260504014305 68 165 2.0 6.0 0.00 0.00 0.00 55 1015.6
20260504014205 68 163 2.0 4.0 0.00 0.00 0.00 54 1015.6
20260504014105 68 161 2.0 4.0 0.00 0.00 0.00 54 1015.6
20260504014005 68 159 2.0 4.0 0.00 0.00 0.00 54 1015.6
20260504013905 68 158 2.0 4.0 0.00 0.00 0.00 54 1015.6
20260504013805 68 156 2.0 4.0 0.00 0.00 0.00 54 1015.5
20260504013705 68 156 2.0 4.0 0.00 0.00 0.00 54 1015.5
20260504013606 68 156 2.0 4.0 0.00 0.00 0.00 54 1015.5
20260504013505 68 155 2.0 6.0 0.00 0.00 0.00 54 1015.5
20260504013406 68 154 2.0 6.0 0.00 0.00 0.00 54 1015.5
20260504013205 68 152 2.0 6.0 0.00 0.00 0.00 53 1015.5
20260504013106 68 152 2.0 6.0 0.00 0.00 0.00 53 1015.4
20260504013005 68 150 3.0 6.0 0.00 0.00 0.00 53 1015.4
20260504012906 68 150 3.0 6.0 0.00 0.00 0.00 53 1015.4
20260504012705 69 150 3.0 6.0 0.00 0.00 0.00 53 1015.4
20260504012606 69 150 3.0 6.0 0.00 0.00 0.00 53 1015.3
20260504012406 69 151 3.0 4.0 0.00 0.00 0.00 52 1015.4
20260504012305 69 151 3.0 4.0 0.00 0.00 0.00 52 1015.4
20260504012206 69 151 3.0 4.0 0.00 0.00 0.00 52 1015.4
20260504012005 69 154 3.0 5.0 0.00 0.00 0.00 51 1015.4
20260504011805 70 157 3.0 5.0 0.00 0.00 0.00 51 1015.4
20260504011706 70 158 3.0 5.0 0.00 0.00 0.00 51 1015.5
20260504011605 70 158 3.0 5.0 0.00 0.00 0.00 51 1015.4
20260504011506 70 159 3.0 5.0 0.00 0.00 0.00 51 1015.4
20260504011406 70 159 3.0 5.0 0.00 0.00 0.00 50 1015.5
20260504011305 70 160 3.0 6.0 0.00 0.00 0.00 50 1015.5
20260504011105 70 159 3.0 6.0 0.00 0.00 0.00 50 1015.5
20260504011005 70 158 3.0 6.0 0.00 0.00 0.00 50 1015.5
20260504010906 70 157 3.0 6.0 0.00 0.00 0.00 50 1015.5
20260504010706 70 155 3.0 6.0 0.00 0.00 0.00 49 1015.5
20260504010606 71 154 3.0 6.0 0.00 0.00 0.00 49 1015.5
20260504010505 71 152 3.0 6.0 0.00 0.00 0.00 49 1015.5
20260504010406 71 151 3.0 7.0 0.00 0.00 0.00 49 1015.4
20260504010305 71 151 3.0 7.0 0.00 0.00 0.00 48 1015.4
20260504010206 71 151 4.0 7.0 0.00 0.00 0.00 48 1015.4
20260504010005 71 152 4.0 7.0 0.00 0.00 0.00 48 1015.4
20260504005805 71 153 4.0 7.0 0.00 0.00 0.00 47 1015.5
20260504005705 72 153 5.0 9.0 0.00 0.00 0.00 47 1015.5
20260504005606 72 153 5.0 9.0 0.00 0.00 0.00 47 1015.6
20260504005406 72 154 5.0 9.0 0.00 0.00 0.00 47 1015.6
20260504005205 72 153 5.0 9.0 0.00 0.00 0.00 46 1015.5
20260504005106 72 154 5.0 9.0 0.00 0.00 0.00 46 1015.6
20260504005005 72 154 5.0 9.0 0.00 0.00 0.00 46 1015.6
20260504004905 72 153 5.0 9.0 0.00 0.00 0.00 45 1015.5
20260504004806 72 152 5.0 9.0 0.00 0.00 0.00 45 1015.5
20260504004705 72 151 5.0 8.0 0.00 0.00 0.00 45 1015.5
20260504004605 72 150 5.0 8.0 0.00 0.00 0.00 45 1015.4
20260504004505 73 151 5.0 8.0 0.00 0.00 0.00 45 1015.4
20260504004405 73 151 5.0 8.0 0.00 0.00 0.00 45 1015.4
20260504004306 73 150 5.0 8.0 0.00 0.00 0.00 44 1015.4
20260504004205 73 151 5.0 10.0 0.00 0.00 0.00 44 1015.4
20260504004106 73 150 5.0 10.0 0.00 0.00 0.00 44 1015.4
20260504004005 73 150 5.0 10.0 0.00 0.00 0.00 44 1015.5
20260504003806 73 151 5.0 10.0 0.00 0.00 0.00 44 1015.5
20260504003605 73 153 5.0 10.0 0.00 0.00 0.00 44 1015.5
20260504003505 73 153 5.0 10.0 0.00 0.00 0.00 44 1015.5
20260504003406 73 153 5.0 10.0 0.00 0.00 0.00 44 1015.5
20260504003305 73 153 5.0 10.0 0.00 0.00 0.00 44 1015.5
20260504003205 73 154 5.0 10.0 0.00 0.00 0.00 44 1015.4
20260504003106 73 154 5.0 8.0 0.00 0.00 0.00 44 1015.4
20260504002905 74 153 5.0 8.0 0.00 0.00 0.00 44 1015.4
20260504002805 74 153 5.0 9.0 0.00 0.00 0.00 44 1015.4
20260504002706 74 153 5.0 9.0 0.00 0.00 0.00 44 1015.5
20260504002605 74 151 5.0 9.0 0.00 0.00 0.00 43 1015.5
20260504002406 74 150 5.0 9.0 0.00 0.00 0.00 43 1015.5
20260504002305 74 150 5.0 9.0 0.00 0.00 0.00 43 1015.6
20260504002205 74 149 5.0 9.0 0.00 0.00 0.00 43 1015.5
20260504002105 74 150 5.0 9.0 0.00 0.00 0.00 43 1015.6
20260504002006 74 150 5.0 9.0 0.00 0.00 0.00 43 1015.5
20260504001807 74 153 5.0 9.0 0.00 0.00 0.00 43 1015.6
20260504001705 74 153 5.0 10.0 0.00 0.00 0.00 43 1015.6
20260504001605 74 154 5.0 10.0 0.00 0.00 0.00 43 1015.5
20260504001505 74 154 5.0 10.0 0.00 0.00 0.00 43 1015.5
20260504001306 74 156 6.0 10.0 0.00 0.00 0.00 43 1015.6
20260504001205 74 158 6.0 10.0 0.00 0.00 0.00 43 1015.6
20260504001106 74 157 6.0 10.0 0.00 0.00 0.00 42 1015.6
20260504001006 74 156 6.0 10.0 0.00 0.00 0.00 42 1015.6
20260504000905 74 156 6.0 10.0 0.00 0.00 0.00 42 1015.6
20260504000706 74 156 6.0 10.0 0.00 0.00 0.00 42 1015.6
20260504000605 74 156 6.0 10.0 0.00 0.00 0.00 42 1015.7
20260504000505 74 157 6.0 11.0 0.00 0.00 0.00 42 1015.7
20260504000405 74 155 5.0 11.0 0.00 0.00 0.00 42 1015.7
20260504000305 75 154 5.0 11.0 0.00 0.00 0.00 42 1015.7
20260504000205 75 153 5.0 11.0 0.00 0.00 0.00 42 1015.7
20260504000105 75 154 6.0 11.0 0.00 0.00 0.00 42 1015.7
20260504000005 75 154 6.0 11.0 0.00 0.00 0.00 41 1015.7
20260503235905 75 153 6.0 11.0 0.00 0.00 0.00 41 1015.7
20260503235805 75 153 5.0 11.0 0.00 0.00 0.00 41 1015.7
20260503235705 75 152 5.0 11.0 0.00 0.00 0.00 41 1015.7
20260503235505 75 150 6.0 11.0 0.00 0.00 0.00 41 1015.7
20260503235405 75 151 5.0 11.0 0.00 0.00 0.00 41 1015.7
20260503235305 75 151 5.0 11.0 0.00 0.00 0.00 41 1015.7
20260503235105 75 150 5.0 11.0 0.00 0.00 0.00 40 1015.8
20260503235005 75 149 5.0 11.0 0.00 0.00 0.00 40 1015.7
20260503234705 75 149 5.0 11.0 0.00 0.00 0.00 40 1015.8
20260503234606 75 147 5.0 10.0 0.00 0.00 0.00 39 1015.8
20260503234505 76 147 5.0 10.0 0.00 0.00 0.00 39 1015.8
20260503234406 76 146 6.0 9.0 0.00 0.00 0.00 39 1015.8
20260503234205 76 144 6.0 13.0 0.00 0.00 0.00 39 1015.9
20260503234105 76 146 6.0 13.0 0.00 0.00 0.00 39 1015.9
20260503234006 75 144 6.0 13.0 0.00 0.00 0.00 39 1015.8
20260503233906 76 146 6.0 13.0 0.00 0.00 0.00 38 1015.8
20260503233806 75 147 6.0 13.0 0.00 0.00 0.00 38 1015.8
20260503233705 76 147 7.0 13.0 0.00 0.00 0.00 38 1015.8
20260503233605 76 151 7.0 13.0 0.00 0.00 0.00 38 1015.8
20260503233505 76 154 7.0 13.0 0.00 0.00 0.00 39 1015.9
20260503233405 76 155 7.0 13.0 0.00 0.00 0.00 38 1016.0
20260503233305 76 157 7.0 12.0 0.00 0.00 0.00 38 1016.0
20260503233206 76 158 7.0 12.0 0.00 0.00 0.00 38 1016.0
20260503233006 76 159 7.0 12.0 0.00 0.00 0.00 39 1016.0
20260503232905 76 160 7.0 12.0 0.00 0.00 0.00 39 1016.0
20260503232805 76 162 7.0 12.0 0.00 0.00 0.00 38 1016.0
20260503232705 76 164 7.0 12.0 0.00 0.00 0.00 39 1016.0
20260503232605 76 163 7.0 12.0 0.00 0.00 0.00 39 1016.0
20260503232505 77 164 6.0 12.0 0.00 0.00 0.00 38 1015.9
20260503232305 77 162 6.0 12.0 0.00 0.00 0.00 37 1016.0
20260503232205 77 162 6.0 12.0 0.00 0.00 0.00 37 1016.0
20260503232104 77 162 6.0 12.0 0.00 0.00 0.00 37 1016.1
20260503232005 78 161 6.0 12.0 0.00 0.00 0.00 37 1016.0
20260503231905 78 161 5.0 12.0 0.00 0.00 0.00 37 1016.0
20260503231806 78 158 6.0 12.0 0.00 0.00 0.00 37 1016.1
20260503231705 78 154 6.0 12.0 0.00 0.00 0.00 37 1016.0
20260503231605 78 154 6.0 12.0 0.00 0.00 0.00 37 1016.1
20260503231505 78 152 6.0 12.0 0.00 0.00 0.00 38 1016.0
20260503231105 78 153 6.0 13.0 0.00 0.00 0.00 36 1016.0
20260503230905 78 153 7.0 13.0 0.00 0.00 0.00 36 1016.0
20260503230805 77 155 7.0 13.0 0.00 0.00 0.00 36 1016.0
20260503230705 77 157 8.0 14.0 0.00 0.00 0.00 36 1016.0
20260503230605 77 161 8.0 14.0 0.00 0.00 0.00 37 1016.0
20260503230507 77 162 8.0 14.0 0.00 0.00 0.00 37 1016.0
20260503230405 77 163 9.0 14.0 0.00 0.00 0.00 37 1016.0
20260503230305 77 162 9.0 14.0 0.00 0.00 0.00 37 1016.1
20260503230205 77 161 8.0 14.0 0.00 0.00 0.00 37 1016.1
20260503230105 77 161 8.0 14.0 0.00 0.00 0.00 38 1016.1
20260503230006 77 161 9.0 14.0 0.00 0.00 0.00 38 1016.1
20260503225906 77 162 9.0 14.0 0.00 0.00 0.00 36 1016.1
20260503225805 77 160 8.0 14.0 0.00 0.00 0.00 36 1016.1
20260503225704 77 158 8.0 14.0 0.00 0.00 0.00 36 1016.1
20260503225605 78 154 8.0 14.0 0.00 0.00 0.00 36 1016.1
20260503225506 78 150 8.0 13.0 0.00 0.00 0.00 36 1016.1
20260503225405 78 150 7.0 13.0 0.00 0.00 0.00 36 1016.1
20260503225305 78 151 7.0 13.0 0.00 0.00 0.00 36 1016.1
20260503225205 78 152 7.0 13.0 0.00 0.00 0.00 36 1016.2
20260503225106 78 153 7.0 13.0 0.00 0.00 0.00 36 1016.1
20260503225005 78 152 7.0 13.0 0.00 0.00 0.00 35 1016.1
20260503224906 78 152 7.0 13.0 0.00 0.00 0.00 35 1016.1
20260503224805 78 153 7.0 13.0 0.00 0.00 0.00 35 1016.2
20260503224704 78 155 7.0 13.0 0.00 0.00 0.00 36 1016.2
20260503224605 79 155 7.0 15.0 0.00 0.00 0.00 35 1016.2
20260503224505 78 155 7.0 15.0 0.00 0.00 0.00 36 1016.2
20260503224305 78 155 8.0 15.0 0.00 0.00 0.00 37 1016.3
20260503224205 78 154 8.0 15.0 0.00 0.00 0.00 36 1016.4
20260503224105 78 156 8.0 15.0 0.00 0.00 0.00 36 1016.4
20260503224006 78 155 8.0 15.0 0.00 0.00 0.00 36 1016.3
20260503223905 78 158 8.0 15.0 0.00 0.00 0.00 35 1016.4
20260503223405 79 167 8.0 15.0 0.00 0.00 0.00 35 1016.4
20260503223305 79 168 7.0 15.0 0.00 0.00 0.00 35 1016.4
20260503223206 79 167 7.0 15.0 0.00 0.00 0.00 35 1016.4
20260503223105 79 164 7.0 15.0 0.00 0.00 0.00 35 1016.4
20260503223006 79 165 8.0 16.0 0.00 0.00 0.00 35 1016.3
20260503222905 79 163 7.0 16.0 0.00 0.00 0.00 36 1016.3
20260503222805 79 158 7.0 16.0 0.00 0.00 0.00 37 1016.3
20260503222705 78 156 8.0 16.0 0.00 0.00 0.00 37 1016.3
20260503222605 78 155 8.0 16.0 0.00 0.00 0.00 35 1016.3
20260503222505 78 155 8.0 16.0 0.00 0.00 0.00 35 1016.4
20260503222407 78 157 8.0 16.0 0.00 0.00 0.00 35 1016.4
20260503222306 78 161 8.0 16.0 0.00 0.00 0.00 35 1016.4
20260503222205 78 163 8.0 16.0 0.00 0.00 0.00 35 1016.4
20260503222006 79 166 9.0 16.0 0.00 0.00 0.00 35 1016.4
20260503221905 79 169 9.0 18.0 0.00 0.00 0.00 35 1016.4
20260503221806 79 174 9.0 18.0 0.00 0.00 0.00 35 1016.4
20260503221706 79 176 9.0 18.0 0.00 0.00 0.00 35 1016.4
20260503221505 79 176 9.0 18.0 0.00 0.00 0.00 35 1016.4
20260503221405 79 176 10.0 18.0 0.00 0.00 0.00 35 1016.5
20260503221305 79 172 10.0 18.0 0.00 0.00 0.00 35 1016.5
20260503221206 79 172 10.0 18.0 0.00 0.00 0.00 35 1016.5
20260503221006 79 170 9.0 18.0 0.00 0.00 0.00 34 1016.5
20260503220905 80 166 8.0 16.0 0.00 0.00 0.00 34 1016.5
20260503220806 80 161 8.0 16.0 0.00 0.00 0.00 35 1016.5
20260503220705 80 156 8.0 16.0 0.00 0.00 0.00 34 1016.5
20260503220605 80 154 8.0 16.0 0.00 0.00 0.00 34 1016.6
20260503220305 80 148 9.0 16.0 0.00 0.00 0.00 35 1016.5
20260503220105 80 141 9.0 16.0 0.00 0.00 0.00 35 1016.5
20260503215906 79 140 9.0 16.0 0.00 0.00 0.00 36 1016.6
20260503215805 79 141 9.0 16.0 0.00 0.00 0.00 35 1016.6
20260503215705 79 142 9.0 17.0 0.00 0.00 0.00 35 1016.6
20260503215605 79 141 9.0 17.0 0.00 0.00 0.00 35 1016.6
20260503215505 79 141 8.0 17.0 0.00 0.00 0.00 34 1016.7
20260503215305 80 142 8.0 17.0 0.00 0.00 0.00 35 1016.7
20260503215205 80 143 7.0 17.0 0.00 0.00 0.00 35 1016.7
20260503215105 80 146 7.0 17.0 0.00 0.00 0.00 35 1016.7
20260503215006 80 150 7.0 17.0 0.00 0.00 0.00 35 1016.7
20260503214906 80 152 7.0 17.0 0.00 0.00 0.00 35 1016.7
20260503214705 80 152 7.0 15.0 0.00 0.00 0.00 34 1016.8
20260503214605 80 153 8.0 15.0 0.00 0.00 0.00 34 1016.8
20260503214505 80 157 9.0 15.0 0.00 0.00 0.00 34 1016.8
20260503214405 80 162 9.0 15.0 0.00 0.00 0.00 33 1017.0
20260503214305 80 160 9.0 16.0 0.00 0.00 0.00 35 1016.9
20260503214205 80 159 9.0 16.0 0.00 0.00 0.00 35 1017.0
20260503214104 80 160 10.0 16.0 0.00 0.00 0.00 34 1016.9
20260503214006 80 160 10.0 16.0 0.00 0.00 0.00 32 1017.0
20260503213805 80 162 10.0 16.0 0.00 0.00 0.00 33 1017.0
20260503213705 80 164 9.0 16.0 0.00 0.00 0.00 34 1017.1
20260503213605 80 165 9.0 16.0 0.00 0.00 0.00 34 1017.1
20260503213505 80 163 9.0 16.0 0.00 0.00 0.00 34 1017.2
20260503213405 80 160 9.0 16.0 0.00 0.00 0.00 34 1017.1
20260503213305 80 158 9.0 16.0 0.00 0.00 0.00 36 1017.1
20260503213205 79 157 10.0 17.0 0.00 0.00 0.00 34 1017.2
20260503213005 79 146 9.0 26.0 0.00 0.00 0.00 34 1017.2
20260503212905 79 144 9.0 26.0 0.00 0.00 0.00 34 1017.1
20260503212705 79 143 10.0 26.0 0.00 0.00 0.00 33 1017.2
20260503212605 80 142 9.0 26.0 0.00 0.00 0.00 33 1017.2
20260503212406 80 141 10.0 26.0 0.00 0.00 0.00 32 1017.2
20260503212305 80 145 10.0 26.0 0.00 0.00 0.00 32 1017.1
20260503212205 80 149 9.0 26.0 0.00 0.00 0.00 32 1017.3
20260503212105 80 153 9.0 16.0 0.00 0.00 0.00 32 1017.3
20260503212005 80 152 9.0 16.0 0.00 0.00 0.00 32 1017.3
20260503211905 80 150 9.0 17.0 0.00 0.00 0.00 34 1017.5
20260503211805 80 147 9.0 17.0 0.00 0.00 0.00 35 1017.4
20260503211705 79 142 10.0 17.0 0.00 0.00 0.00 34 1017.5
20260503211605 80 142 10.0 17.0 0.00 0.00 0.00 34 1017.5
20260503211505 80 141 10.0 17.0 0.00 0.00 0.00 34 1017.6
20260503211405 80 140 9.0 17.0 0.00 0.00 0.00 33 1017.5
20260503211305 80 138 9.0 17.0 0.00 0.00 0.00 32 1017.6
20260503211206 80 135 9.0 17.0 0.00 0.00 0.00 34 1017.6
20260503211005 80 136 8.0 17.0 0.00 0.00 0.00 33 1017.5
20260503210905 80 140 8.0 15.0 0.00 0.00 0.00 33 1017.6
20260503210805 80 147 8.0 14.0 0.00 0.00 0.00 34 1017.5
20260503210705 80 153 8.0 17.0 0.00 0.00 0.00 34 1017.5
20260503210606 81 157 8.0 17.0 0.00 0.00 0.00 34 1017.5
20260503210405 80 162 8.0 17.0 0.00 0.00 0.00 34 1017.5
20260503210305 80 163 8.0 17.0 0.00 0.00 0.00 33 1017.7
20260503210205 80 166 8.0 17.0 0.00 0.00 0.00 34 1017.7
20260503205905 80 169 9.0 17.0 0.00 0.00 0.00 33 1017.8
20260503205705 80 169 10.0 17.0 0.00 0.00 0.00 34 1017.9
20260503205605 80 167 10.0 17.0 0.00 0.00 0.00 33 1017.8
20260503205504 80 163 10.0 17.0 0.00 0.00 0.00 33 1017.9
20260503205405 80 160 10.0 17.0 0.00 0.00 0.00 34 1017.9
20260503205304 80 160 10.0 17.0 0.00 0.00 0.00 33 1017.9
20260503205205 80 159 10.0 17.0 0.00 0.00 0.00 31 1017.9
20260503205105 80 157 11.0 17.0 0.00 0.00 0.00 31 1017.9
20260503204905 80 153 10.0 17.0 0.00 0.00 0.00 31 1017.9
20260503204805 80 150 10.0 17.0 0.00 0.00 0.00 31 1017.9
20260503204705 80 146 10.0 17.0 0.00 0.00 0.00 33 1017.8
20260503204605 80 146 10.0 17.0 0.00 0.00 0.00 32 1017.8
20260503204405 80 150 10.0 18.0 0.00 0.00 0.00 31 1017.9
20260503204304 80 149 9.0 18.0 0.00 0.00 0.00 30 1017.8
20260503204205 80 149 9.0 18.0 0.00 0.00 0.00 31 1017.8
20260503203905 80 149 9.0 18.0 0.00 0.00 0.00 31 1017.9
20260503203804 80 152 9.0 18.0 0.00 0.00 0.00 30 1018.0
20260503203705 80 157 9.0 18.0 0.00 0.00 0.00 29 1017.9
20260503203605 80 161 9.0 18.0 0.00 0.00 0.00 31 1017.9
20260503203405 81 168 8.0 15.0 0.00 0.00 0.00 32 1017.9
20260503203305 81 167 7.0 15.0 0.00 0.00 0.00 33 1018.0
20260503203105 81 172 7.0 15.0 0.00 0.00 0.00 33 1018.1
20260503203006 81 174 7.0 15.0 0.00 0.00 0.00 33 1018.1
20260503202905 81 178 8.0 15.0 0.00 0.00 0.00 33 1018.2
20260503202805 80 177 7.0 15.0 0.00 0.00 0.00 33 1018.3
20260503202705 80 173 8.0 15.0 0.00 0.00 0.00 33 1018.3
20260503202606 80 171 8.0 17.0 0.00 0.00 0.00 33 1018.3
20260503202505 80 166 9.0 17.0 0.00 0.00 0.00 33 1018.3
20260503202405 80 165 9.0 17.0 0.00 0.00 0.00 34 1018.3
20260503202305 80 167 9.0 17.0 0.00 0.00 0.00 34 1018.4
20260503202205 79 167 10.0 17.0 0.00 0.00 0.00 34 1018.4
20260503202005 79 169 9.0 17.0 0.00 0.00 0.00 32 1018.4
20260503201905 80 171 9.0 17.0 0.00 0.00 0.00 31 1018.5
20260503201805 80 174 10.0 17.0 0.00 0.00 0.00 31 1018.4
20260503201605 80 183 9.0 15.0 0.00 0.00 0.00 30 1018.4
20260503201505 81 186 8.0 15.0 0.00 0.00 0.00 33 1018.5
20260503201405 80 191 8.0 15.0 0.00 0.00 0.00 32 1018.4
20260503201305 81 191 8.0 15.0 0.00 0.00 0.00 32 1018.6
20260503201205 81 192 7.0 15.0 0.00 0.00 0.00 33 1018.6
20260503201105 81 189 7.0 15.0 0.00 0.00 0.00 32 1018.6
20260503200905 81 178 7.0 15.0 0.00 0.00 0.00 32 1018.6
20260503200804 81 173 7.0 15.0 0.00 0.00 0.00 32 1018.6
20260503200705 81 164 7.0 12.0 0.00 0.00 0.00 33 1018.7
20260503200605 81 158 7.0 12.0 0.00 0.00 0.00 36 1018.6
20260503200405 80 164 7.0 12.0 0.00 0.00 0.00 35 1018.6
20260503200305 80 170 8.0 15.0 0.00 0.00 0.00 33 1018.7
20260503200205 80 171 8.0 15.0 0.00 0.00 0.00 33 1018.7
20260503200105 81 175 8.0 15.0 0.00 0.00 0.00 33 1018.7
20260503200005 81 177 8.0 15.0 0.00 0.00 0.00 33 1018.6
20260503195805 80 182 8.0 15.0 0.00 0.00 0.00 33 1018.7
20260503195705 80 181 8.0 15.0 0.00 0.00 0.00 33 1018.7
20260503195505 80 177 8.0 15.0 0.00 0.00 0.00 32 1018.7
20260503195404 81 170 7.0 15.0 0.00 0.00 0.00 32 1018.7
20260503195305 81 164 7.0 14.0 0.00 0.00 0.00 32 1018.8
20260503195205 80 161 7.0 14.0 0.00 0.00 0.00 33 1018.7
20260503195105 80 157 7.0 14.0 0.00 0.00 0.00 32 1018.7
20260503195007 80 155 7.0 13.0 0.00 0.00 0.00 32 1018.8
20260503194905 80 154 7.0 13.0 0.00 0.00 0.00 34 1018.8
20260503194706 81 162 7.0 14.0 0.00 0.00 0.00 34 1018.7
20260503194504 80 168 8.0 17.0 0.00 0.00 0.00 33 1018.8
20260503194405 80 168 8.0 17.0 0.00 0.00 0.00 34 1018.8
20260503194305 80 169 8.0 17.0 0.00 0.00 0.00 34 1018.8
20260503194205 80 168 8.0 17.0 0.00 0.00 0.00 32 1018.8
20260503194105 80 164 9.0 17.0 0.00 0.00 0.00 33 1018.9
20260503194005 80 161 8.0 17.0 0.00 0.00 0.00 33 1018.9
20260503193905 80 157 8.0 17.0 0.00 0.00 0.00 33 1019.0
20260503193806 80 154 8.0 17.0 0.00 0.00 0.00 33 1019.0
20260503193705 81 150 8.0 17.0 0.00 0.00 0.00 33 1019.1
20260503193606 81 148 8.0 17.0 0.00 0.00 0.00 33 1019.0
20260503193405 80 157 9.0 18.0 0.00 0.00 0.00 31 1018.9
20260503193305 80 158 9.0 18.0 0.00 0.00 0.00 32 1019.0
20260503193205 80 163 9.0 18.0 0.00 0.00 0.00 32 1019.0
20260503193005 80 171 9.0 18.0 0.00 0.00 0.00 31 1019.1
20260503192705 80 171 8.0 18.0 0.00 0.00 0.00 31 1019.1
20260503192606 80 171 8.0 18.0 0.00 0.00 0.00 31 1019.1
20260503192505 80 164 7.0 18.0 0.00 0.00 0.00 31 1019.2
20260503192406 81 157 8.0 16.0 0.00 0.00 0.00 30 1019.2
20260503192205 80 147 7.0 14.0 0.00 0.00 0.00 32 1019.1
20260503192105 80 143 7.0 14.0 0.00 0.00 0.00 32 1019.0
20260503191806 80 146 8.0 16.0 0.00 0.00 0.00 32 1019.1
20260503191705 80 147 8.0 16.0 0.00 0.00 0.00 32 1019.2
20260503191605 80 146 9.0 16.0 0.00 0.00 0.00 31 1019.2
20260503191505 80 146 9.0 16.0 0.00 0.00 0.00 31 1019.1
20260503191405 80 145 8.0 16.0 0.00 0.00 0.00 31 1019.2
20260503191305 81 148 8.0 16.0 0.00 0.00 0.00 32 1019.2
20260503191105 80 150 7.0 16.0 0.00 0.00 0.00 32 1019.3
20260503191005 80 154 7.0 16.0 0.00 0.00 0.00 31 1019.3
20260503190904 80 156 7.0 14.0 0.00 0.00 0.00 32 1019.3
20260503190805 80 156 7.0 14.0 0.00 0.00 0.00 32 1019.3
20260503190705 80 159 7.0 14.0 0.00 0.00 0.00 31 1019.3
20260503190605 80 161 7.0 14.0 0.00 0.00 0.00 32 1019.3
20260503190505 80 166 7.0 14.0 0.00 0.00 0.00 31 1019.3
20260503190405 80 171 7.0 14.0 0.00 0.00 0.00 31 1019.3
20260503190304 80 171 8.0 14.0 0.00 0.00 0.00 31 1019.4
20260503190205 80 173 8.0 17.0 0.00 0.00 0.00 31 1019.4
20260503190005 80 176 9.0 17.0 0.00 0.00 0.00 31 1019.5
20260503185905 80 175 8.0 17.0 0.00 0.00 0.00 34 1019.5
20260503185804 80 175 8.0 17.0 0.00 0.00 0.00 31 1019.5
20260503185705 80 173 8.0 17.0 0.00 0.00 0.00 30 1019.5
20260503185604 80 175 8.0 17.0 0.00 0.00 0.00 33 1019.5
20260503185505 80 172 8.0 17.0 0.00 0.00 0.00 32 1019.6
20260503185405 80 172 8.0 17.0 0.00 0.00 0.00 31 1019.5
20260503185205 80 171 9.0 17.0 0.00 0.00 0.00 31 1019.6
20260503185005 80 170 9.0 17.0 0.00 0.00 0.00 33 1019.6
20260503184906 80 171 9.0 17.0 0.00 0.00 0.00 31 1019.6
20260503184704 80 173 9.0 17.0 0.00 0.00 0.00 31 1019.8
20260503184605 80 174 9.0 17.0 0.00 0.00 0.00 32 1019.8
20260503184405 80 176 8.0 17.0 0.00 0.00 0.00 32 1019.7
20260503184205 80 176 7.0 15.0 0.00 0.00 0.00 32 1019.8
20260503184005 80 174 6.0 15.0 0.00 0.00 0.00 32 1019.7
20260503183905 80 173 6.0 11.0 0.00 0.00 0.00 32 1019.7
20260503183805 80 175 6.0 11.0 0.00 0.00 0.00 34 1019.7
20260503183705 80 178 6.0 11.0 0.00 0.00 0.00 31 1019.8
20260503183605 80 183 6.0 11.0 0.00 0.00 0.00 31 1019.8
20260503183405 80 185 6.0 12.0 0.00 0.00 0.00 32 1019.9
20260503183304 80 186 6.0 13.0 0.00 0.00 0.00 33 1019.9
20260503183205 80 189 7.0 13.0 0.00 0.00 0.00 33 1019.9
20260503183104 80 192 7.0 14.0 0.00 0.00 0.00 33 1019.9
20260503182904 79 194 7.0 14.0 0.00 0.00 0.00 32 1019.9
20260503182805 79 194 8.0 14.0 0.00 0.00 0.00 32 1019.9
20260503182704 80 191 8.0 14.0 0.00 0.00 0.00 31 1019.9
20260503182605 80 185 7.0 14.0 0.00 0.00 0.00 32 1019.9
20260503182404 80 181 6.0 14.0 0.00 0.00 0.00 32 1020.0
20260503182306 80 178 6.0 14.0 0.00 0.00 0.00 31 1020.1
20260503182204 80 175 6.0 14.0 0.00 0.00 0.00 31 1020.1
20260503182105 80 172 6.0 13.0 0.00 0.00 0.00 31 1020.1
20260503182006 80 171 6.0 11.0 0.00 0.00 0.00 31 1020.1
20260503181905 80 171 6.0 11.0 0.00 0.00 0.00 31 1020.3
20260503181805 80 171 6.0 12.0 0.00 0.00 0.00 31 1020.2
20260503181704 79 174 7.0 16.0 0.00 0.00 0.00 34 1020.3
20260503181605 79 176 7.0 16.0 0.00 0.00 0.00 32 1020.2
20260503181506 79 177 8.0 16.0 0.00 0.00 0.00 32 1020.2
20260503181405 79 177 8.0 16.0 0.00 0.00 0.00 30 1020.3
20260503181305 80 184 8.0 16.0 0.00 0.00 0.00 31 1020.4
20260503181205 79 186 8.0 16.0 0.00 0.00 0.00 33 1020.4
20260503181104 79 187 8.0 16.0 0.00 0.00 0.00 31 1020.4
20260503181005 79 190 8.0 16.0 0.00 0.00 0.00 33 1020.4
20260503180904 79 193 8.0 16.0 0.00 0.00 0.00 31 1020.5
20260503180805 79 197 8.0 16.0 0.00 0.00 0.00 32 1020.4
20260503180704 79 199 8.0 16.0 0.00 0.00 0.00 31 1020.5
20260503180504 80 208 8.0 16.0 0.00 0.00 0.00 30 1020.5
20260503180405 80 214 7.0 15.0 0.00 0.00 0.00 31 1020.5
20260503180304 80 214 8.0 15.0 0.00 0.00 0.00 31 1020.4
20260503180205 79 211 8.0 15.0 0.00 0.00 0.00 31 1020.5
20260503180104 79 206 8.0 15.0 0.00 0.00 0.00 31 1020.5
20260503180005 79 204 8.0 15.0 0.00 0.00 0.00 31 1020.6
20260503175904 79 199 7.0 15.0 0.00 0.00 0.00 31 1020.6
20260503175805 79 197 7.0 15.0 0.00 0.00 0.00 31 1020.6
20260503175705 79 196 7.0 15.0 0.00 0.00 0.00 32 1020.6
20260503175605 79 195 7.0 14.0 0.00 0.00 0.00 32 1020.6
20260503175505 79 193 7.0 14.0 0.00 0.00 0.00 30 1020.6
20260503175305 80 185 6.0 14.0 0.00 0.00 0.00 31 1020.6
20260503175204 80 185 6.0 14.0 0.00 0.00 0.00 33 1020.6
20260503175105 80 186 6.0 13.0 0.00 0.00 0.00 33 1020.6
20260503174904 80 187 7.0 13.0 0.00 0.00 0.00 34 1020.7
20260503174805 79 186 7.0 13.0 0.00 0.00 0.00 32 1020.7
20260503174705 79 183 7.0 13.0 0.00 0.00 0.00 31 1020.7
20260503174605 80 177 6.0 13.0 0.00 0.00 0.00 32 1020.8
20260503174505 80 172 6.0 13.0 0.00 0.00 0.00 34 1020.8
20260503174304 80 170 5.0 12.0 0.00 0.00 0.00 34 1020.7
20260503174205 80 172 5.0 12.0 0.00 0.00 0.00 34 1020.8
20260503174105 79 172 5.0 10.0 0.00 0.00 0.00 34 1020.7
20260503174005 79 169 5.0 10.0 0.00 0.00 0.00 34 1020.7
20260503173904 79 168 5.0 9.0 0.00 0.00 0.00 33 1020.8
20260503173805 79 166 5.0 10.0 0.00 0.00 0.00 35 1020.8
20260503173706 79 169 6.0 10.0 0.00 0.00 0.00 33 1020.8
20260503173605 79 173 6.0 10.0 0.00 0.00 0.00 35 1020.8
20260503173505 79 177 7.0 11.0 0.00 0.00 0.00 34 1020.8
20260503173404 79 181 7.0 14.0 0.00 0.00 0.00 34 1020.8
20260503173305 79 183 7.0 14.0 0.00 0.00 0.00 34 1020.9
20260503173205 79 184 6.0 14.0 0.00 0.00 0.00 33 1020.8
20260503173105 79 188 6.0 14.0 0.00 0.00 0.00 34 1020.9
20260503173004 79 194 6.0 14.0 0.00 0.00 0.00 32 1020.9
20260503172905 79 196 7.0 14.0 0.00 0.00 0.00 34 1020.9
20260503172705 79 204 7.0 15.0 0.00 0.00 0.00 34 1020.9
20260503172605 79 205 7.0 15.0 0.00 0.00 0.00 34 1020.9
20260503172504 79 205 7.0 15.0 0.00 0.00 0.00 34 1020.9
20260503172405 78 200 6.0 15.0 0.00 0.00 0.00 34 1020.9
20260503172306 79 193 6.0 15.0 0.00 0.00 0.00 34 1021.0
20260503172004 79 177 7.0 15.0 0.00 0.00 0.00 33 1021.2
20260503171905 79 176 7.0 15.0 0.00 0.00 0.00 33 1021.2
20260503171805 79 174 7.0 15.0 0.00 0.00 0.00 34 1021.2
20260503171706 79 169 6.0 13.0 0.00 0.00 0.00 34 1021.2
20260503171604 79 169 6.0 13.0 0.00 0.00 0.00 33 1021.1
20260503171505 79 170 6.0 13.0 0.00 0.00 0.00 32 1021.2
20260503171406 78 179 6.0 13.0 0.00 0.00 0.00 34 1021.2
20260503171204 79 197 6.0 13.0 0.00 0.00 0.00 34 1021.2
20260503171105 79 204 6.0 13.0 0.00 0.00 0.00 34 1021.3
20260503171005 79 209 6.0 13.0 0.00 0.00 0.00 34 1021.3
20260503170905 79 211 6.0 13.0 0.00 0.00 0.00 34 1021.3
20260503170805 78 215 6.0 13.0 0.00 0.00 0.00 34 1021.3
20260503170705 78 215 7.0 13.0 0.00 0.00 0.00 34 1021.3
20260503170604 78 214 7.0 13.0 0.00 0.00 0.00 34 1021.3
20260503170505 78 216 6.0 13.0 0.00 0.00 0.00 33 1021.3
20260503170404 78 217 6.0 13.0 0.00 0.00 0.00 33 1021.3
20260503170305 78 214 6.0 13.0 0.00 0.00 0.00 33 1021.4
20260503170204 78 215 7.0 13.0 0.00 0.00 0.00 35 1021.4
20260503170105 78 214 7.0 13.0 0.00 0.00 0.00 35 1021.4
20260503160204 76 209 6.0 13.0 0.00 0.00 0.00 36 1021.8